Location: Poughquag
(41.6090°N, 73.6820°W)
Time: 03:29:44
(UTC-04:00)

Transit 2A Rocket - Pass Details

Date: 04 June 2020
Orbit: 584 x 919 km, 66.7° (Epoch: 06 July)

Event Time Altitude Azimuth Distance (km) Brightness Sun altitude
Rises 00:26:02 0° 276° (W) 3,196 8.4 -25.6°
Reaches altitude 10° 00:30:19 10° 310° (NW) 2,368 8.1 -25.7°
Maximum altitude 00:32:02 11° 329° (NNW) 2,307 8.3 -25.7°
Drops below altitude 10° 00:33:48 10° 347° (NNW) 2,440 8.6 -25.7°
Sets 00:38:27 0° 20° (NNE) 3,460 9.4 -25.8°
